"Time","Temp","Dewpoint","Humidity","Pressure","Direction","Speed","Gust","Precip","PrecipRate"
"00:04:57","40.6","20.9","45","30.09","283","5.6","16.1","0.00","0.00"
"00:09:56","40.4","20.9","45.4","30.09","297","5.2","12","0.00","0.00"
"00:14:59","40.4","20.7","45","30.10","292","4.4","11.5","0.00","0.00"
"00:19:56","40.4","20.7","45.1","30.10","283","4.4","10.8","0.00","0.00"
"00:24:56","40.1","20.9","46","30.10","297","3.4","7.2","0.00","0.00"
"00:29:57","39.8","20.9","46.3","30.10","277","4","12","0.00","0.00"
"00:34:57","39.7","20.9","46.5","30.10","270","3.2","12","0.00","0.00"
"00:39:56","39.4","21.3","47.9","30.10","244","2.6","11.5","0.00","0.00"
"00:44:56","39","21.1","48.3","30.11","246","2.3","6","0.00","0.00"
"00:49:57","38.9","21","48.2","30.11","232","2","4.8","0.00","0.00"
"00:54:58","38.7","21.2","48.9","30.11","230","1.4","3.5","0.00","0.00"
"00:59:59","38.4","21.4","50.1","30.11","229","1.7","4.8","0.00","0.00"
"01:04:57","38","21.3","50.7","30.11","232","2.2","6","0.00","0.00"
"01:09:56","37.7","21","50.7","30.11","215","3.5","7.2","0.00","0.00"
"01:14:59","37.6","20.9","50.6","30.12","243","4.8","13.2","0.00","0.00"
"01:19:56","37.8","20.5","49.3","30.12","262","3.4","10.4","0.00","0.00"
"01:24:56","38.1","20.5","48.8","30.12","275","4.8","17.3","0.00","0.00"
"01:29:56","38.6","20.4","47.7","30.13","265","4.3","10.4","0.00","0.00"
"01:34:57","38.4","20.4","47.9","30.13","241","5.3","10.8","0.00","0.00"
"01:39:56","38.6","19.9","46.6","30.13","278","4.8","13.2","0.00","0.00"
"01:44:57","38.9","20.1","46.3","30.14","258","6.3","17.3","0.00","0.00"
"01:49:57","39","20.1","46.4","30.14","285","4","13.2","0.00","0.00"
"01:54:58","38.8","20.3","47","30.14","278","3.2","8.4","0.00","0.00"
"01:59:58","38.7","20.2","47","30.15","274","4.2","13.2","0.00","0.00"
"02:04:57","38.6","20.4","47.6","30.15","252","5.6","12.7","0.00","0.00"
"02:09:56","38.4","20.4","47.9","30.15","245","3.4","6","0.00","0.00"
"02:14:58","38.1","20.3","48.6","30.16","240","3.6","10.8","0.00","0.00"
"02:19:59","37.9","20.4","48.8","30.16","270","3","6.9","0.00","0.00"
"02:24:59","37.9","20.3","48.9","30.16","258","2.3","4.8","0.00","0.00"
"02:29:56","37.8","20.4","49","30.17","217","1.6","4.6","0.00","0.00"
"02:34:58","37.5","20.5","50","30.17","216","0.9","4.8","0.00","0.00"
"02:39:57","37.3","20.3","50","30.17","216","0.2","2.4","0.00","0.00"
"02:44:58","37","20.5","51","30.17","216","0.5","2.4","0.00","0.00"
"02:49:58","36.7","20.5","51.6","30.17","216","0.8","2.4","0.00","0.00"
"02:54:59","36.4","20.6","52.6","30.17","205","0.2","6","0.00","0.00"
"02:59:56","36.2","20.3","52.1","30.18","314","3.2","7.2","0.00","0.00"
"03:04:56","36.5","20.4","51.8","30.18","299","3.3","7.2","0.00","0.00"
"03:09:58","36.7","20.5","51.5","30.18","273","4.1","13.2","0.00","0.00"
"03:14:57","36.8","20.4","51.2","30.19","287","5","12","0.00","0.00"
"03:19:58","37","20.5","51","30.19","283","4.5","17.3","0.00","0.00"
"03:24:58","37","20.6","51.2","30.19","294","5","12","0.00","0.00"
"03:29:59","36.9","20.6","51.6","30.19","298","3.6","10.8","0.00","0.00"
"03:34:59","36.6","20.8","52.4","30.19","294","3.7","8.4","0.00","0.00"
"03:39:58","36.5","21","53","30.19","274","5.7","16.1","0.00","0.00"
"03:44:58","36.5","20.9","52.7","30.19","298","7.8","19.6","0.00","0.00"
"03:49:59","36.5","20.5","52","30.19","307","8.5","26.5","0.00","0.00"
"03:54:59","36.6","20.6","52","30.19","319","10.2","24.2","0.00","0.00"
"03:59:59","36.5","20.4","51.7","30.19","298","8.4","18","0.00","0.00"
"04:04:58","36.4","20.3","51.8","30.19","318","9.5","28.8","0.00","0.00"
"04:09:57","36.2","20.2","52","30.19","306","8.3","23","0.00","0.00"
"04:14:59","36","20.1","52","30.19","313","8.4","18.4","0.00","0.00"
"04:19:56","35.9","20","52","30.19","303","9.5","26.5","0.00","0.00"
"04:24:57","35.9","20.1","52.2","30.19","327","8.8","17.3","0.00","0.00"
"04:29:57","35.7","20","52.5","30.20","303","8.7","27.6","0.00","0.00"
"04:34:58","35.7","19.9","52.2","30.20","318","9.2","21.9","0.00","0.00"
"04:39:56","35.6","20","52.8","30.20","316","9.8","21.9","0.00","0.00"
"04:44:56","35.6","19.8","52.4","30.21","322","11","28.8","0.00","0.00"
"04:49:57","35.5","19.6","52.2","30.21","312","9.3","23","0.00","0.00"
"04:54:57","35.3","19.7","52.6","30.21","321","6.8","20.7","0.00","0.00"
"04:59:57","35.1","19.7","53","30.22","315","7.8","19.2","0.00","0.00"
"05:04:56","35.1","19.5","52.6","30.22","317","9.4","19.6","0.00","0.00"
"05:09:59","35.2","19.6","52.7","30.22","325","6.4","17.3","0.00","0.00"
"05:14:57","35","19.6","53","30.24","311","7","19.6","0.00","0.00"
"05:19:58","35","19.6","53","30.24","312","7","13.2","0.00","0.00"
"05:24:58","34.8","19.6","53.5","30.24","304","5.5","16.1","0.00","0.00"
"05:29:58","34.7","19.5","53.6","30.25","302","5.8","16.1","0.00","0.00"
"05:34:58","34.6","19.6","53.9","30.25","316","7.3","18.4","0.00","0.00"
"05:39:56","34.7","19.6","53.9","30.25","266","5","17.3","0.00","0.00"
"05:44:57","34.5","19.5","54","30.27","259","3.5","9.6","0.00","0.00"
"05:49:57","34.4","19.6","54.3","30.27","313","5.2","19.6","0.00","0.00"
"05:54:57","34.4","19.9","54.9","30.27","287","4.3","17.3","0.00","0.00"
"05:59:57","34.4","20.1","55.5","30.28","258","4.5","11.5","0.00","0.00"
"06:04:56","34.2","19.8","55.5","30.28","321","3.2","8.1","0.00","0.00"
"06:09:56","34","19.8","55.7","30.28","243","3.7","10.8","0.00","0.00"
"06:14:58","34.1","19.9","55.8","30.29","248","1.9","10.4","0.00","0.00"
"06:19:58","33.9","20","56.4","30.29","252","4","16.1","0.00","0.00"
"06:24:58","33.8","19.7","56","30.29","183","3.1","8.1","0.00","0.00"
"06:29:58","33.8","20","56.7","30.31","192","0.7","2.4","0.00","0.00"
"06:34:59","33.6","20","57","30.31","193","0.4","2.4","0.00","0.00"
"06:39:57","33.3","20.1","58","30.31","191","0.8","3.6","0.00","0.00"
"06:44:57","32.9","20","58.8","30.32","137","2.1","4.8","0.00","0.00"
"06:49:58","32.3","20.3","60.8","30.32","136","1","3.5","0.00","0.00"
"06:54:58","32.1","19.8","60","30.32","135","2.6","4.8","0.00","0.00"
"06:59:58","32.2","20.1","60.5","30.33","140","2.6","4.8","0.00","0.00"
"07:04:57","31.7","20.3","62.7","30.33","144","1.1","4.8","0.00","0.00"
"07:09:56","31.5","20","62","30.33","131","2.7","6","0.00","0.00"
"07:14:58","31.6","20","61.9","30.35","310","2.3","6","0.00","0.00"
"07:19:59","31.7","20.3","62.3","30.35","244","2.4","5.8","0.00","0.00"
"07:24:56","31.5","20.1","62.3","30.35","245","1.1","3.6","0.00","0.00"
"07:29:56","31.5","19.8","61.4","30.36","268","2.8","12","0.00","0.00"
"07:34:56","32.1","19.6","59.5","30.36","274","4.3","10.8","0.00","0.00"
"07:39:59","32.6","19.5","58.3","30.36","305","2.6","10.4","0.00","0.00"
"07:44:59","32.8","19.6","58","30.37","267","2.1","6","0.00","0.00"
"07:49:59","33","19.8","58","30.37","257","2.8","6","0.00","0.00"
"07:54:59","33.1","19.7","57.6","30.37","239","2.3","6","0.00","0.00"
"07:59:56","33.1","19.7","57.5","30.38","262","3.1","7.2","0.00","0.00"
"08:04:58","33.4","19.7","56.9","30.38","270","3.1","12","0.00","0.00"
"08:09:57","33.8","19.9","56.3","30.38","263","1.4","4.8","0.00","0.00"
"08:14:59","34.2","20","55.8","30.38","264","3.1","7.2","0.00","0.00"
"08:19:59","34.6","20.1","55","30.38","219","2.4","4.8","0.00","0.00"
"08:24:59","34.9","20.5","55.3","30.38","212","2.3","3.6","0.00","0.00"
"08:29:59","35.3","20.3","54.1","30.41","245","2.6","10.8","0.00","0.00"
"08:34:59","35.6","20.9","54.8","30.41","214","1.1","4.6","0.00","0.00"
"08:39:57","36.1","20.9","53.8","30.41","249","2.6","12","0.00","0.00"
"08:44:57","36.2","20.7","53","30.42","305","4.1","13.2","0.00","0.00"
"08:49:57","36.1","20.5","52.7","30.42","272","3.7","8.4","0.00","0.00"
"08:54:56","36.2","20.5","52.5","30.42","314","4.6","19.6","0.00","0.00"
"08:59:56","36.3","20.7","52.7","30.42","238","5","12","0.00","0.00"
"09:04:58","36.3","20.7","52.8","30.42","301","4.8","10.8","0.00","0.00"
"09:09:57","36.5","20.9","52.9","30.42","254","6","13.2","0.00","0.00"
"09:14:59","36.5","21.2","53.4","30.43","263","5.3","13.2","0.00","0.00"
"09:19:59","36.7","21.1","52.8","30.43","290","5.3","15.6","0.00","0.00"
"09:24:59","36.6","20.4","51.5","30.43","317","7.6","17.3","0.00","0.00"
"09:29:58","36.7","20.8","52.2","30.43","288","5.4","16.8","0.00","0.00"
"09:34:58","36.9","20.9","51.9","30.42","299","6.3","17.3","0.00","0.00"
"09:39:56","37.1","21","51.8","30.42","299","6.7","18","0.00","0.00"
"09:44:58","37.1","20.9","51.6","30.42","295","6.9","18.4","0.00","0.00"
"09:49:57","37.4","21.8","53","30.42","285","5.1","13.2","0.00","0.00"
"09:54:59","37.5","20.9","50.8","30.42","306","7.9","15","0.00","0.00"
"09:59:58","37.4","21.2","51.7","30.43","303","6.2","15","0.00","0.00"
"10:04:56","37.5","20.9","50.8","30.43","279","6.6","15","0.00","0.00"
"10:09:59","37.6","21.3","51.4","30.43","305","5.9","15","0.00","0.00"
"10:14:57","37.9","21.4","51.2","30.44","280","3.6","11.5","0.00","0.00"
"10:19:57","38.3","21.5","50.7","30.44","286","5.1","15","0.00","0.00"
"10:24:57","38.8","23","52.9","30.44","258","3.9","7.2","0.00","0.00"
"10:29:57","39.2","22.4","50.5","30.44","284","3.4","10.8","0.00","0.00"
"10:34:56","39.4","22.8","51","30.44","257","5.1","13.2","0.00","0.00"
"10:39:58","39.4","21.8","49","30.44","332","5.2","10.8","0.00","0.00"
"10:44:57","39.4","21.9","49.2","30.45","305","4.8","10.8","0.00","0.00"
"10:49:57","39.4","22.3","50","30.45","253","6.2","12","0.00","0.00"
"10:54:57","39.4","22.2","49.9","30.45","293","5.1","18.4","0.00","0.00"
"10:59:56","39.7","23.2","51.5","30.45","238","6.9","17.3","0.00","0.00"
"11:04:59","40.1","23.3","50.8","30.45","240","5.6","10.8","0.00","0.00"
"11:09:58","40.3","23","49.9","30.45","284","5.8","10.8","0.00","0.00"
"11:14:59","40.4","22.7","49","30.46","276","4.8","10.8","0.00","0.00"
"11:19:59","40.1","22.7","49.4","30.46","238","4.1","8.4","0.00","0.00"
"11:24:59","40.5","22.6","48.6","30.46","256","5.5","13.2","0.00","0.00"
"11:29:59","40.6","22.5","48.2","30.46","267","4","10.8","0.00","0.00"
"11:34:58","40.4","21.8","47.1","30.46","292","5.3","17.3","0.00","0.00"
"11:39:59","40.3","22.2","48.2","30.46","254","6","12","0.00","0.00"
"11:44:59","40.6","22.2","47.7","30.46","290","5.7","13.2","0.00","0.00"
"11:49:59","41","22.7","47.8","30.45","269","5.5","13.2","0.00","0.00"
"11:54:58","41","22.5","47.4","30.45","272","6.7","16.1","0.00","0.00"
"11:59:58","41","22.3","47.1","30.45","282","7.2","17.3","0.00","0.00"
"12:04:56","41.1","22.6","47.3","30.45","286","5.2","16.8","0.00","0.00"
"12:09:59","41.5","23.1","47.7","30.45","256","5.4","15","0.00","0.00"
"12:14:56","42","23","46.5","30.46","231","5.4","10.8","0.00","0.00"
"12:19:56","42.5","24.2","48.1","30.46","262","4.3","10.8","0.00","0.00"
"12:24:56","42.4","22.8","45.4","30.46","245","4.5","9.6","0.00","0.00"
"12:29:56","42.5","22.9","45.5","30.46","300","4","8.4","0.00","0.00"
"12:34:59","42.4","22.1","44.3","30.46","261","3.9","7.2","0.00","0.00"
"12:39:57","42.4","22.1","44.2","30.46","327","5.7","17.3","0.00","0.00"
"12:44:56","42.6","22.6","44.8","30.46","302","5.4","13.2","0.00","0.00"
"12:49:56","42.7","22.1","43.6","30.45","291","5.4","13.2","0.00","0.00"
"12:54:59","42.9","22.1","43.3","30.45","289","6.1","12","0.00","0.00"
"12:59:59","43","22","43","30.46","287","6.7","17.3","0.00","0.00"
"13:04:57","43.2","21.8","42.3","30.46","303","6.3","13.2","0.00","0.00"
"13:09:56","43.3","22","42.6","30.46","280","4.2","10.8","0.00","0.00"
"13:14:58","43.8","22.7","43","30.46","256","3.6","8.4","0.00","0.00"
"13:19:58","44.3","22.5","41.8","30.45","293","4.3","15","0.00","0.00"
"13:24:58","44.4","22.1","41","30.45","316","4.8","12","0.00","0.00"
"13:29:58","44.5","22.2","41","30.45","309","4.2","19.2","0.00","0.00"
"13:34:57","44.7","21.4","39.4","30.45","271","5.6","19.6","0.00","0.00"
"13:39:59","44.3","21.4","39.9","30.45","270","5","13.2","0.00","0.00"
"13:44:56","44.6","21.7","39.9","30.45","293","6.3","20.7","0.00","0.00"
"13:49:56","44.6","20.9","38.7","30.45","279","6.5","13.2","0.00","0.00"
"13:54:59","44.5","20.7","38.5","30.45","300","5.4","12.7","0.00","0.00"
"13:59:59","44.7","21.3","39","30.45","341","4.2","18.4","0.00","0.00"
"14:04:57","45.4","22.3","39.8","30.44","280","3.8","7.2","0.00","0.00"
"14:09:56","46","21.8","38.1","30.44","299","4.1","8.4","0.00","0.00"
"14:14:58","46","21.5","37.6","30.45","310","5.1","13.2","0.00","0.00"
"14:19:58","45.8","20.7","36.5","30.45","314","4.9","14.4","0.00","0.00"
"14:24:58","45.8","20.6","36.5","30.45","318","6.4","16.1","0.00","0.00"
"14:29:56","45.5","20.9","37.4","30.45","288","5.3","20.4","0.00","0.00"
"14:34:58","45.7","21.3","37.7","30.44","303","5.8","10.8","0.00","0.00"
"14:39:56","45.7","21","37.3","30.44","293","4.4","10.8","0.00","0.00"
"14:44:57","45.6","21.1","37.5","30.45","317","4.8","13.2","0.00","0.00"
"14:49:57","45.6","20.5","36.6","30.45","302","5.5","9.6","0.00","0.00"
"14:54:57","45.6","20.8","36.9","30.45","307","4.4","9.6","0.00","0.00"
"14:59:57","45.9","20.6","36.3","30.45","307","4.4","12","0.00","0.00"
"15:04:56","45.8","20.6","36.5","30.45","275","5.2","13.2","0.00","0.00"
"15:09:58","45.7","20.9","37","30.45","288","4.5","10.8","0.00","0.00"
"15:14:57","45.9","21","36.9","30.45","336","4","12","0.00","0.00"
"15:19:57","46.3","21.5","37.2","30.45","312","3.8","12","0.00","0.00"
"15:24:57","46.3","20.7","35.9","30.45","325","4.4","7.2","0.00","0.00"
"15:29:57","46.2","20.9","36.4","30.46","305","3.9","12","0.00","0.00"
"15:34:59","45.9","20.3","35.8","30.46","324","6.4","13.2","0.00","0.00"
"15:39:57","45.4","20","36","30.46","317","5.1","12","0.00","0.00"
"15:44:57","45.2","20","36.3","30.46","311","5.3","12","0.00","0.00"
"15:49:58","45.1","20.3","36.9","30.46","333","4.3","12","0.00","0.00"
"15:54:58","45","19.6","36.1","30.46","319","4.5","13.2","0.00","0.00"
"15:59:58","44.5","19.2","36","30.47","327","4.9","9.6","0.00","0.00"
"16:04:57","44","18.9","36.2","30.47","317","5.8","12","0.00","0.00"
"16:09:56","43.6","19.1","37.2","30.47","332","4.8","10.8","0.00","0.00"
"16:14:58","43.2","19.3","38","30.47","343","4.5","12","0.00","0.00"
"16:19:58","42.9","19.1","38.2","30.47","313","2.1","11.5","0.00","0.00"
"16:24:57","42.6","19.1","38.6","30.47","323","0.8","5.8","0.00","0.00"
"16:29:57","42.3","19.1","38.8","30.49","321","1","3.6","0.00","0.00"
"16:34:58","42.1","19","39.2","30.49","322","1.1","2.4","0.00","0.00"
"16:39:57","41.8","19.3","40.2","30.49","328","2.5","6","0.00","0.00"
"16:44:59","41.4","19.4","41","30.49","335","1","5.8","0.00","0.00"
"16:49:58","41","19.2","41.2","30.49","335","0.1","2.3","0.00","0.00"
"16:54:56","40.6","19.5","42.4","30.49","335","0","0","0.00","0.00"
"16:59:59","40.2","19.8","43.8","30.49","334","1.2","4.8","0.00","0.00"
"17:04:56","39.7","19.1","43.1","30.49","335","1.8","4.8","0.00","0.00"
"17:09:59","39.5","19.3","44","30.49","335","0.9","3.6","0.00","0.00"
"17:14:58","39.1","19.6","45.2","30.49","335","0.6","2.4","0.00","0.00"
"17:19:58","38.6","19.8","46.4","30.49","335","0.5","2.4","0.00","0.00"
"17:24:59","37.9","20.9","50","30.49","335","1.2","2.4","0.00","0.00"
"17:29:59","37.2","20","49.6","30.49","328","2.5","6","0.00","0.00"
"17:34:56","37.2","19.6","48.6","30.48","318","4.3","6","0.00","0.00"
"17:39:58","37.6","19.3","47.2","30.48","346","3.4","6","0.00","0.00"
"17:44:59","38","19.2","46.4","30.48","9","2.2","4.8","0.00","0.00"
"17:49:59","38.2","19.4","46.3","30.48","29","2.2","4.8","0.00","0.00"
"17:54:56","38.2","20","47.7","30.48","38","0.1","2.3","0.00","0.00"
"17:59:57","37.9","20.5","49.2","30.48","36","1.9","4.8","0.00","0.00"
"18:04:56","37.5","20.4","49.8","30.48","34","1.6","4.8","0.00","0.00"
"18:09:59","37.2","20","49.6","30.48","34","0.4","2.4","0.00","0.00"
"18:14:57","37.1","20.2","50.1","30.49","34","0.5","2.3","0.00","0.00"
"18:19:58","36.8","20.8","52","30.49","34","1.3","3.6","0.00","0.00"
"18:24:58","36.6","20.5","51.7","30.49","6","3","4.8","0.00","0.00"
"18:29:58","36.8","20.6","51.5","30.49","262","1.4","3.6","0.00","0.00"
"18:34:59","36.7","20.6","51.8","30.48","262","0.4","3.5","0.00","0.00"
"18:39:58","36.6","20.2","51.1","30.48","262","0","1.2","0.00","0.00"
"18:44:59","36.5","20.4","51.8","30.49","262","0","0","0.00","0.00"
"18:49:56","36.4","20.4","52","30.49","262","0.6","2.4","0.00","0.00"
"18:54:56","36.2","19.9","51.3","30.49","262","0.7","2.4","0.00","0.00"
"18:59:56","36.2","20.1","51.9","30.50","262","0","0","0.00","0.00"
"19:04:59","35.9","21.4","55.3","30.50","262","0.5","1.2","0.00","0.00"
"19:09:59","35.5","21.1","55.6","30.50","262","0.1","1.2","0.00","0.00"
"19:14:58","35.2","20.8","55.6","30.50","262","0.7","2.4","0.00","0.00"
"19:19:58","35","20.9","56","30.50","251","1.6","3.6","0.00","0.00"
"19:24:59","34.8","21.4","57.8","30.50","244","0.5","2.4","0.00","0.00"
"19:29:56","34.5","21.6","59.2","30.50","244","0.3","2.4","0.00","0.00"
"19:34:57","34.3","20.6","57","30.50","244","0.7","2.4","0.00","0.00"
"19:39:59","34.1","21.6","59.9","30.50","244","0.6","2.4","0.00","0.00"
"19:44:56","33.9","21.3","59.4","30.50","244","0.3","2.4","0.00","0.00"
"19:49:57","33.9","21.4","59.8","30.50","244","0.4","2.4","0.00","0.00"
"19:54:57","33.9","21.4","59.7","30.50","244","0","2.3","0.00","0.00"
"19:59:58","33.9","21.4","59.9","30.50","244","0.1","1.2","0.00","0.00"
"20:04:57","33.8","22.2","62.1","30.50","244","1.5","3.6","0.00","0.00"
"20:09:56","33.6","22","62","30.50","244","2.4","3.6","0.00","0.00"
"20:14:58","33.8","21.4","60","30.50","244","0.2","2.3","0.00","0.00"
"20:19:59","33.9","21.1","59.1","30.50","244","0.9","2.4","0.00","0.00"
"20:24:59","34.1","21.1","58.7","30.50","244","0.1","1.2","0.00","0.00"
"20:29:55","34.3","21.3","58.8","30.51","244","0","1.2","0.00","0.00"
"20:34:56","34.2","22.1","61","30.51","244","0.6","2.4","0.00","0.00"
"20:39:59","33.8","21.4","60","30.51","244","0.5","2.4","0.00","0.00"
"20:44:59","33.7","21.5","60.6","30.51","233","1.6","4.8","0.00","0.00"
"20:49:56","33.7","21.3","59.9","30.51","229","0.3","2.4","0.00","0.00"
"20:54:56","33.7","21.8","61.2","30.51","229","1.3","2.4","0.00","0.00"
"20:59:56","33.6","21.8","61.5","30.51","229","0","0","0.00","0.00"
"21:04:55","33.5","21.9","62.1","30.51","229","0","1.2","0.00","0.00"
"21:09:59","33.2","22.2","63.7","30.51","229","0.6","2.4","0.00","0.00"
"21:14:57","32.8","21.9","63.8","30.52","229","0.4","3.6","0.00","0.00"
"21:19:58","32.6","21.4","63","30.52","229","0.1","2.4","0.00","0.00"
"21:24:59","32.5","21.8","64.3","30.52","229","2.1","3.6","0.00","0.00"
"21:29:59","32.3","22.3","66.2","30.52","229","0.3","2.4","0.00","0.00"
"21:34:56","32","22.1","66.4","30.52","229","0.8","2.4","0.00","0.00"
"21:39:59","31.7","21.7","66.1","30.52","229","0","0","0.00","0.00"
"21:44:56","31.5","21.3","65.6","30.52","229","0.1","1.2","0.00","0.00"
"21:49:57","31.4","21.4","66.2","30.52","229","0.7","3.6","0.00","0.00"
"21:54:57","31.2","21.5","67","30.52","229","0.8","3.5","0.00","0.00"
"21:59:58","31.1","21.4","67","30.52","229","0.1","2.4","0.00","0.00"
"22:04:57","31","21.3","67.2","30.51","229","0.5","2.4","0.00","0.00"
"22:09:56","30.8","21.4","67.6","30.51","229","0.5","2.4","0.00","0.00"
"22:14:59","30.6","21.8","69.5","30.52","229","0.7","2.4","0.00","0.00"
"22:19:57","30.3","22","70.9","30.52","229","1.3","2.4","0.00","0.00"
"22:24:57","30.1","21.6","70.1","30.52","229","0","0","0.00","0.00"
"22:29:58","30","21.8","71.2","30.52","229","0","0","0.00","0.00"
"22:34:59","29.8","22","72.2","30.52","229","0.4","1.2","0.00","0.00"
"22:39:57","29.7","22","72.8","30.52","229","0.1","2.4","0.00","0.00"
"22:44:58","29.6","22","73","30.52","229","1.6","2.4","0.00","0.00"
"22:49:59","29.5","21.9","73","30.52","229","0.2","1.2","0.00","0.00"
"22:54:55","29.5","22.1","73.5","30.52","229","0","1.2","0.00","0.00"
"22:59:56","29.4","22.1","74","30.53","229","0","0","0.00","0.00"
"23:04:58","29.4","22.1","74","30.53","229","0.7","2.4","0.00","0.00"
"23:09:57","29.2","22","74.2","30.53","229","0.4","2.3","0.00","0.00"
"23:14:58","29.1","22.1","74.8","30.54","229","0","0","0.00","0.00"
"23:19:59","28.9","22.2","75.6","30.54","229","0","1.2","0.00","0.00"
"23:24:59","28.8","22.4","76.7","30.54","229","0.3","1.2","0.00","0.00"
"23:29:59","28.6","22.3","77","30.54","229","0","0","0.00","0.00"
"23:34:56","28.3","22","77","30.54","229","0","0","0.00","0.00"
"23:39:59","28","22","77.8","30.54","229","0","0","0.00","0.00"
"23:44:56","27.8","22","78.6","30.54","229","0","0","0.00","0.00"
